,,,PA_Meas_PMT16A,,PR_Meas_QMR101_102,,RH_Meas_QMH101,,SR_Meas_QMS101,,TA_Meas_QMH101,,GenWind,,GenWind,
date,time,status,PA,status,PR,status,RH,status,SR,status,TA,status,DirAvg,status,SpdAvg,
2014-12-27, 00:00:04,VALID,1009.16,VALID,0,INVALID,141.168,VALID,0,VALID,24.3761,VALID,322,VALID,0,
2014-12-27, 00:01:04,VALID,1009.16,VALID,0,INVALID,141.16,VALID,0.112112,VALID,24.3547,VALID,322,VALID,0,
2014-12-27, 00:02:04,VALID,1009.15,VALID,0,INVALID,141.076,VALID,0,VALID,24.3352,VALID,217,VALID,0,
2014-12-27, 00:03:04,VALID,1009.12,VALID,0.5,INVALID,141.092,VALID,0.112112,VALID,24.3352,VALID,217,VALID,0,
2014-12-27, 00:04:04,VALID,1009.08,VALID,0,INVALID,141.054,VALID,0.112112,VALID,24.3158,VALID,307,VALID,0,
2014-12-27, 00:05:04,VALID,1009.05,VALID,0,INVALID,140.947,VALID,0,VALID,24.2981,VALID,294,VALID,0,
2014-12-27, 00:06:04,VALID,1009.03,VALID,0.5,INVALID,140.84,VALID,0.112112,VALID,24.2573,VALID,252,VALID,0,
2014-12-27, 00:07:04,VALID,1009.01,VALID,0,INVALID,140.779,VALID,0,VALID,24.2183,VALID,243,VALID,0,
2014-12-27, 00:08:04,VALID,1008.97,VALID,0.5,INVALID,140.642,VALID,0,VALID,24.1988,VALID,224,VALID,0,
2014-12-27, 00:09:04,VALID,1008.97,VALID,0,INVALID,140.535,VALID,0,VALID,24.2007,VALID,235,VALID,0,
2014-12-27, 00:10:04,VALID,1008.95,VALID,0,INVALID,140.619,VALID,0.112112,VALID,24.1793,VALID,235,VALID,0,
2014-12-27, 00:11:04,VALID,1008.92,VALID,0,INVALID,140.665,VALID,0,VALID,24.1812,VALID,231,VALID,0,
2014-12-27, 00:12:04,VALID,1008.89,VALID,0,INVALID,140.688,VALID,0,VALID,24.1422,VALID,231,VALID,0,
2014-12-27, 00:13:04,VALID,1008.88,VALID,0,INVALID,140.741,VALID,0.112112,VALID,24.1209,VALID,233,VALID,0,
2014-12-27, 00:14:04,VALID,1008.88,VALID,0,INVALID,140.71,VALID,0.112112,VALID,24.1227,VALID,233,VALID,0,
2014-12-27, 00:15:04,VALID,1008.86,VALID,0,INVALID,140.848,VALID,0.112112,VALID,24.1227,VALID,233,VALID,0,
2014-12-27, 00:16:04,VALID,1008.84,VALID,0,INVALID,140.924,VALID,0,VALID,24.1051,VALID,233,VALID,0,
2014-12-27, 00:17:04,VALID,1008.82,VALID,0.5,INVALID,140.932,VALID,0,VALID,24.0856,VALID,256,VALID,0,
2014-12-27, 00:18:04,VALID,1008.8,VALID,0,INVALID,141.015,VALID,0,VALID,24.0643,VALID,263,VALID,0,
2014-12-27, 00:19:04,VALID,1008.77,VALID,0,INVALID,141.069,VALID,0,VALID,24.1051,VALID,263,VALID,0,
2014-12-27, 00:20:04,VALID,1008.77,VALID,0,INVALID,141.168,VALID,0,VALID,24.0643,VALID,263,VALID,0,
2014-12-27, 00:21:04,VALID,1008.77,VALID,0,INVALID,141.145,VALID,0,VALID,24.0448,VALID,258,VALID,0,
2014-12-27, 00:22:04,VALID,1008.73,VALID,0,INVALID,141.115,VALID,0,VALID,24.0253,VALID,220,VALID,0,
2014-12-27, 00:23:04,VALID,1008.71,VALID,0,INVALID,141.069,VALID,0,VALID,24.0253,VALID,220,VALID,0,
2014-12-27, 00:24:04,VALID,1008.7,VALID,0,INVALID,141.008,VALID,0,VALID,24.0058,VALID,223,VALID,0,
2014-12-27, 00:25:04,VALID,1008.68,VALID,0.5,INVALID,140.893,VALID,0,VALID,23.9881,VALID,226,VALID,0,
2014-12-27, 00:26:04,VALID,1008.66,VALID,0,INVALID,140.855,VALID,0,VALID,23.9686,VALID,224,VALID,0,
2014-12-27, 00:27:04,VALID,1008.64,VALID,0,INVALID,140.787,VALID,0,VALID,23.9491,VALID,222,VALID,0,
2014-12-27, 00:28:04,VALID,1008.63,VALID,0,INVALID,140.787,VALID,0,VALID,23.9491,VALID,231,VALID,0,
2014-12-27, 00:29:04,VALID,1008.6,VALID,0,INVALID,140.794,VALID,0,VALID,23.9102,VALID,231,VALID,0,
2014-12-27, 00:30:04,VALID,1008.62,VALID,0,INVALID,140.886,VALID,0,VALID,23.9084,VALID,231,VALID,0,
2014-12-27, 00:31:04,VALID,1008.63,VALID,0,INVALID,140.977,VALID,0,VALID,23.9278,VALID,231,VALID,0,
2014-12-27, 00:32:04,VALID,1008.61,VALID,0.5,INVALID,141.031,VALID,0,VALID,23.8871,VALID,231,VALID,0,
2014-12-27, 00:33:04,VALID,1008.61,VALID,0,INVALID,141.13,VALID,0,VALID,23.9084,VALID,247,VALID,0,
2014-12-27, 00:34:04,VALID,1008.59,VALID,0,INVALID,141.122,VALID,0,VALID,23.8871,VALID,249,VALID,0,
2014-12-27, 00:35:04,VALID,1008.57,VALID,0,INVALID,141.137,VALID,0,VALID,23.9084,VALID,249,VALID,0,
2014-12-27, 00:36:04,VALID,1008.59,VALID,0,INVALID,141.046,VALID,0,VALID,23.8871,VALID,241,VALID,0,
2014-12-27, 00:37:04,VALID,1008.57,VALID,0.5,INVALID,141.008,VALID,0.112112,VALID,23.8889,VALID,241,VALID,0,
2014-12-27, 00:38:04,VALID,1008.57,VALID,0,INVALID,140.97,VALID,0,VALID,23.8676,VALID,241,VALID,0,
2014-12-27, 00:39:04,VALID,1008.57,VALID,0,INVALID,140.932,VALID,0.112112,VALID,23.8871,VALID,241,VALID,0,
2014-12-27, 00:40:04,VALID,1008.59,VALID,0,INVALID,140.916,VALID,0.112112,VALID,23.8871,VALID,241,VALID,0,
2014-12-27, 00:41:04,VALID,1008.56,VALID,0,INVALID,140.855,VALID,0,VALID,23.9084,VALID,241,VALID,0,
2014-12-27, 00:42:04,VALID,1008.56,VALID,0,INVALID,140.817,VALID,0.112112,VALID,23.8871,VALID,241,VALID,0,
2014-12-27, 00:43:04,VALID,1008.56,VALID,0,INVALID,140.794,VALID,0.112112,VALID,23.8871,VALID,242,VALID,0,
2014-12-27, 00:44:04,VALID,1008.55,VALID,0,INVALID,140.718,VALID,0.112112,VALID,23.8871,VALID,242,VALID,0,
2014-12-27, 00:45:04,VALID,1008.54,VALID,0,INVALID,140.71,VALID,0.112112,VALID,23.9473,VALID,254,VALID,0,
2014-12-27, 00:46:04,VALID,1008.51,VALID,0,INVALID,140.604,VALID,0,VALID,23.9491,VALID,257,VALID,0,
2014-12-27, 00:47:04,VALID,1008.52,VALID,0.5,INVALID,140.558,VALID,0,VALID,23.9668,VALID,257,VALID,0,
2014-12-27, 00:48:04,VALID,1008.45,VALID,0,INVALID,140.459,VALID,0,VALID,24.0076,VALID,257,VALID,0,
2014-12-27, 00:49:04,VALID,1008.44,VALID,0,INVALID,140.352,VALID,0,VALID,23.9863,VALID,257,VALID,0,
2014-12-27, 00:50:04,VALID,1008.45,VALID,0,INVALID,140.283,VALID,0,VALID,24.0076,VALID,257,VALID,0,
2014-12-27, 00:51:04,VALID,1008.39,VALID,0,INVALID,140.207,VALID,0,VALID,23.9863,VALID,257,VALID,0,
2014-12-27, 00:52:04,VALID,1008.38,VALID,0,INVALID,140.1,VALID,0,VALID,23.9863,VALID,257,VALID,0,
2014-12-27, 00:53:04,VALID,1008.34,VALID,0,INVALID,140.016,VALID,0,VALID,24.0058,VALID,257,VALID,0,
2014-12-27, 00:54:04,VALID,1008.31,VALID,0,INVALID,139.986,VALID,0,VALID,24.0076,VALID,257,VALID,0,
2014-12-27, 00:55:04,VALID,1008.32,VALID,0,INVALID,139.963,VALID,0,VALID,24.0058,VALID,257,VALID,0,
2014-12-27, 00:56:04,VALID,1008.28,VALID,0,INVALID,139.933,VALID,0,VALID,24.0058,VALID,257,VALID,0,
2014-12-27, 00:57:04,VALID,1008.24,VALID,0,INVALID,139.925,VALID,0,VALID,24.0271,VALID,257,VALID,0,
2014-12-27, 00:58:04,VALID,1008.24,VALID,0,INVALID,139.864,VALID,0,VALID,24.0058,VALID,257,VALID,0,
2014-12-27, 00:59:04,VALID,1008.2,VALID,0,INVALID,139.849,VALID,0,VALID,24.0253,VALID,257,VALID,0,
2014-12-27, 01:00:04,VALID,1008.17,VALID,0,INVALID,139.826,VALID,0,VALID,24.0058,VALID,257,VALID,0,
2014-12-27, 01:01:04,VALID,1008.15,VALID,0,INVALID,139.818,VALID,0.112112,VALID,24.004,VALID,257,VALID,0,
2014-12-27, 01:02:04,VALID,1008.14,VALID,0,INVALID,139.803,VALID,0.112112,VALID,24.004,VALID,257,VALID,0,
2014-12-27, 01:03:04,VALID,1008.11,VALID,0,INVALID,139.757,VALID,0,VALID,24.004,VALID,257,VALID,0,
2014-12-27, 01:04:04,VALID,1008.08,VALID,0,INVALID,139.696,VALID,0.112112,VALID,24.0235,VALID,257,VALID,0,
2014-12-27, 01:05:04,VALID,1008.09,VALID,0,INVALID,139.689,VALID,0,VALID,24.0235,VALID,257,VALID,0,
2014-12-27, 01:06:04,VALID,1008.04,VALID,0,INVALID,139.65,VALID,0.112112,VALID,24.0235,VALID,257,VALID,0,
2014-12-27, 01:07:04,VALID,1007.99,VALID,0,INVALID,139.536,VALID,0.112112,VALID,24.0429,VALID,257,VALID,0,
2014-12-27, 01:08:04,VALID,1007.98,VALID,0,INVALID,139.46,VALID,0,VALID,24.0837,VALID,276,VALID,0,
2014-12-27, 01:09:04,VALID,1007.98,VALID,0,INVALID,139.277,VALID,0,VALID,24.1032,VALID,297,VALID,0,
2014-12-27, 01:10:04,VALID,1007.97,VALID,0,INVALID,139.185,VALID,0,VALID,24.1014,VALID,297,VALID,0,
2014-12-27, 01:11:04,VALID,1007.97,VALID,0,INVALID,139.048,VALID,0.112112,VALID,24.1209,VALID,297,VALID,0,
2014-12-27, 01:12:04,VALID,1007.96,VALID,0,INVALID,138.895,VALID,0.112112,VALID,24.1209,VALID,297,VALID,0,
2014-12-27, 01:13:04,VALID,1007.96,VALID,0,INVALID,138.789,VALID,0.112112,VALID,24.1404,VALID,297,VALID,0,
2014-12-27, 01:14:04,VALID,1007.95,VALID,0,INVALID,138.674,VALID,0.112112,VALID,24.1599,VALID,297,VALID,0,
2014-12-27, 01:15:04,VALID,1007.93,VALID,0,INVALID,138.56,VALID,0.112112,VALID,24.1812,VALID,297,VALID,0,
2014-12-27, 01:16:04,VALID,1007.91,VALID,0,INVALID,138.453,VALID,0,VALID,24.1617,VALID,297,VALID,0,
2014-12-27, 01:17:04,VALID,1007.89,VALID,0,INVALID,138.377,VALID,0,VALID,24.1617,VALID,297,VALID,0,
2014-12-27, 01:18:04,VALID,1007.9,VALID,0,INVALID,138.331,VALID,0,VALID,24.1635,VALID,297,VALID,0,
2014-12-27, 01:19:04,VALID,1007.88,VALID,0,INVALID,138.285,VALID,0,VALID,24.1422,VALID,297,VALID,0,
2014-12-27, 01:20:04,VALID,1007.86,VALID,0,INVALID,138.27,VALID,0,VALID,24.1635,VALID,297,VALID,0,
2014-12-27, 01:21:04,VALID,1007.84,VALID,0,INVALID,138.224,VALID,0,VALID,24.1422,VALID,297,VALID,0,
2014-12-27, 01:22:04,VALID,1007.82,VALID,0,INVALID,138.194,VALID,0,VALID,24.1635,VALID,297,VALID,0,
2014-12-27, 01:23:04,VALID,1007.81,VALID,0,INVALID,138.209,VALID,0,VALID,24.1227,VALID,328,VALID,0,
2014-12-27, 01:24:04,VALID,1007.8,VALID,0,INVALID,138.194,VALID,0,VALID,24.1032,VALID,328,VALID,0,
2014-12-27, 01:25:04,VALID,1007.82,VALID,0,INVALID,138.156,VALID,0,VALID,24.1245,VALID,328,VALID,0,
2014-12-27, 01:26:04,VALID,1007.78,VALID,0,INVALID,138.156,VALID,0,VALID,24.1245,VALID,328,VALID,0,
2014-12-27, 01:27:04,VALID,1007.75,VALID,0,INVALID,138.156,VALID,0,VALID,24.0837,VALID,328,VALID,0,
2014-12-27, 01:28:04,VALID,1007.77,VALID,0,INVALID,138.186,VALID,0,VALID,24.0643,VALID,328,VALID,0,
2014-12-27, 01:29:04,VALID,1007.77,VALID,0,INVALID,138.125,VALID,0,VALID,24.0856,VALID,328,VALID,0,
2014-12-27, 01:30:04,VALID,1007.76,VALID,0,INVALID,138.141,VALID,0,VALID,24.0856,VALID,328,VALID,0,
2014-12-27, 01:31:04,VALID,1007.76,VALID,0,INVALID,138.125,VALID,0,VALID,24.0429,VALID,328,VALID,0,
2014-12-27, 01:32:04,VALID,1007.74,VALID,0,INVALID,138.072,VALID,0,VALID,24.0837,VALID,328,VALID,0,
2014-12-27, 01:33:04,VALID,1007.71,VALID,0,INVALID,137.996,VALID,0.112112,VALID,24.0624,VALID,328,VALID,0,
2014-12-27, 01:34:04,VALID,1007.71,VALID,0,INVALID,137.996,VALID,0.112112,VALID,24.0624,VALID,328,VALID,0,
2014-12-27, 01:35:04,VALID,1007.7,VALID,0,INVALID,137.973,VALID,0.112112,VALID,24.0624,VALID,328,VALID,0,
2014-12-27, 01:36:04,VALID,1007.7,VALID,0,INVALID,137.927,VALID,0.112112,VALID,24.0624,VALID,328,VALID,0,
2014-12-27, 01:37:04,VALID,1007.68,VALID,0,INVALID,137.828,VALID,0,VALID,24.0643,VALID,328,VALID,0,
2014-12-27, 01:38:04,VALID,1007.66,VALID,0,INVALID,137.828,VALID,0,VALID,24.0624,VALID,328,VALID,0,
2014-12-27, 01:39:04,VALID,1007.65,VALID,0,INVALID,137.759,VALID,0,VALID,24.0429,VALID,328,VALID,0,
2014-12-27, 01:40:04,VALID,1007.63,VALID,0,INVALID,137.721,VALID,0,VALID,24.0643,VALID,328,VALID,0,
2014-12-27, 01:41:04,VALID,1007.61,VALID,0,INVALID,137.675,VALID,0,VALID,24.0429,VALID,328,VALID,0,
2014-12-27, 01:42:04,VALID,1007.6,VALID,0,INVALID,137.645,VALID,0.112112,VALID,24.0429,VALID,328,VALID,0,
2014-12-27, 01:43:04,VALID,1007.6,VALID,0,INVALID,137.591,VALID,0,VALID,24.0643,VALID,328,VALID,0,
2014-12-27, 01:44:04,VALID,1007.59,VALID,0,INVALID,137.538,VALID,0.112112,VALID,24.0624,VALID,328,VALID,0,
2014-12-27, 01:45:04,VALID,1007.59,VALID,0,INVALID,137.523,VALID,0,VALID,24.0429,VALID,328,VALID,0,
2014-12-27, 01:46:04,VALID,1007.58,VALID,0,INVALID,137.462,VALID,0,VALID,24.0253,VALID,328,VALID,0,
2014-12-27, 01:47:04,VALID,1007.58,VALID,0,INVALID,137.469,VALID,0,VALID,24.004,VALID,328,VALID,0,
2014-12-27, 01:48:04,VALID,1007.54,VALID,0,INVALID,137.431,VALID,0,VALID,24.0253,VALID,328,VALID,0,
2014-12-27, 01:49:04,VALID,1007.57,VALID,0,INVALID,137.424,VALID,0,VALID,24.0253,VALID,328,VALID,0,
2014-12-27, 01:50:04,VALID,1007.55,VALID,0,INVALID,137.393,VALID,0.112112,VALID,24.0253,VALID,328,VALID,0,
2014-12-27, 01:51:04,VALID,1007.52,VALID,0,INVALID,137.401,VALID,0,VALID,23.9863,VALID,328,VALID,0,
2014-12-27, 01:52:04,VALID,1007.52,VALID,0,INVALID,137.347,VALID,0,VALID,23.9863,VALID,328,VALID,0,
2014-12-27, 01:53:04,VALID,1007.5,VALID,0,INVALID,137.34,VALID,0,VALID,23.9863,VALID,328,VALID,0,
2014-12-27, 01:54:04,VALID,1007.49,VALID,0,INVALID,137.347,VALID,0,VALID,23.9668,VALID,328,VALID,0,
2014-12-27, 01:55:04,VALID,1007.48,VALID,0,INVALID,137.286,VALID,0,VALID,23.9668,VALID,328,VALID,0,
2014-12-27, 01:56:04,VALID,1007.44,VALID,0,INVALID,137.264,VALID,0,VALID,23.9668,VALID,328,VALID,0,
2014-12-27, 01:57:04,VALID,1007.43,VALID,0,INVALID,137.233,VALID,0,VALID,23.9668,VALID,328,VALID,0,
2014-12-27, 01:58:04,VALID,1007.43,VALID,0,INVALID,137.18,VALID,0,VALID,23.9881,VALID,328,VALID,0,
2014-12-27, 01:59:04,VALID,1007.42,VALID,0,INVALID,137.111,VALID,0,VALID,23.9668,VALID,328,VALID,0,
2014-12-27, 02:00:04,VALID,1007.39,VALID,0,INVALID,137.035,VALID,0,VALID,23.9863,VALID,328,VALID,0,
2014-12-27, 02:01:04,VALID,1007.41,VALID,0,INVALID,136.974,VALID,0.112112,VALID,23.9845,VALID,328,VALID,0,
2014-12-27, 02:02:04,VALID,1007.4,VALID,0,INVALID,136.943,VALID,0.112112,VALID,23.9845,VALID,328,VALID,0,
2014-12-27, 02:03:04,VALID,1007.4,VALID,0,INVALID,136.859,VALID,0.112112,VALID,23.965,VALID,328,VALID,0,
2014-12-27, 02:04:04,VALID,1007.42,VALID,0,INVALID,136.753,VALID,0.112112,VALID,23.9863,VALID,328,VALID,0,
2014-12-27, 02:05:04,VALID,1007.42,VALID,0,INVALID,136.722,VALID,0.112112,VALID,23.965,VALID,328,VALID,0,
2014-12-27, 02:06:04,VALID,1007.38,VALID,0,INVALID,136.631,VALID,0.112112,VALID,23.965,VALID,328,VALID,0,
2014-12-27, 02:07:04,VALID,1007.4,VALID,0,INVALID,136.516,VALID,0.112112,VALID,23.965,VALID,328,VALID,0,
2014-12-27, 02:08:04,VALID,1007.42,VALID,0,INVALID,136.463,VALID,0.112112,VALID,23.9455,VALID,328,VALID,0,
2014-12-27, 02:09:04,VALID,1007.4,VALID,0,INVALID,136.348,VALID,0.112112,VALID,23.965,VALID,328,VALID,0,
2014-12-27, 02:10:04,VALID,1007.4,VALID,0,INVALID,136.265,VALID,0.112112,VALID,23.965,VALID,328,VALID,0,
2014-12-27, 02:11:04,VALID,1007.39,VALID,0,INVALID,136.196,VALID,0.112112,VALID,23.965,VALID,328,VALID,0,
2014-12-27, 02:12:04,VALID,1007.38,VALID,0,INVALID,136.074,VALID,0.112112,VALID,23.965,VALID,328,VALID,0,
2014-12-27, 02:13:04,VALID,1007.37,VALID,0,INVALID,136.028,VALID,0.112112,VALID,23.965,VALID,328,VALID,0,
2014-12-27, 02:14:04,VALID,1007.34,VALID,0,INVALID,135.944,VALID,0.112112,VALID,23.965,VALID,328,VALID,0,
2014-12-27, 02:15:04,VALID,1007.33,VALID,0,INVALID,135.845,VALID,0.112112,VALID,23.965,VALID,328,VALID,0,
2014-12-27, 02:16:04,VALID,1007.3,VALID,0,INVALID,135.777,VALID,0,VALID,23.9473,VALID,328,VALID,0,
2014-12-27, 02:17:04,VALID,1007.29,VALID,0,INVALID,135.685,VALID,0,VALID,23.9473,VALID,328,VALID,0,
2014-12-27, 02:18:04,VALID,1007.28,VALID,0,INVALID,135.647,VALID,0,VALID,23.9686,VALID,328,VALID,0,
2014-12-27, 02:19:04,VALID,1007.29,VALID,0,INVALID,135.548,VALID,0,VALID,23.9473,VALID,328,VALID,0,
2014-12-27, 02:20:04,VALID,1007.28,VALID,0,INVALID,135.487,VALID,0,VALID,23.9473,VALID,328,VALID,0,
2014-12-27, 02:21:04,VALID,1007.27,VALID,0,INVALID,135.479,VALID,0,VALID,23.9473,VALID,328,VALID,0,
2014-12-27, 02:22:04,VALID,1007.28,VALID,0,INVALID,135.411,VALID,0,VALID,23.9473,VALID,328,VALID,0,
2014-12-27, 02:23:04,VALID,1007.26,VALID,0,INVALID,135.35,VALID,0,VALID,23.9278,VALID,328,VALID,0,
2014-12-27, 02:24:04,VALID,1007.25,VALID,0,INVALID,135.334,VALID,0,VALID,23.9084,VALID,328,VALID,0,
2014-12-27, 02:25:04,VALID,1007.26,VALID,0,INVALID,135.304,VALID,0,VALID,23.8871,VALID,328,VALID,0,
2014-12-27, 02:26:04,VALID,1007.24,VALID,0,INVALID,135.243,VALID,0,VALID,23.9084,VALID,328,VALID,0,
2014-12-27, 02:27:04,VALID,1007.2,VALID,0,INVALID,135.212,VALID,0,VALID,23.9084,VALID,328,VALID,0,
2014-12-27, 02:28:04,VALID,1007.19,VALID,0,INVALID,135.159,VALID,0,VALID,23.9084,VALID,328,VALID,0,
2014-12-27, 02:29:04,VALID,1007.18,VALID,0,INVALID,135.128,VALID,0,VALID,23.8889,VALID,328,VALID,0,
2014-12-27, 02:30:04,VALID,1007.16,VALID,0,INVALID,135.06,VALID,0,VALID,23.9084,VALID,328,VALID,0,
2014-12-27, 02:31:04,VALID,1007.14,VALID,0,INVALID,135.075,VALID,0.112112,VALID,23.8871,VALID,328,VALID,0,
2014-12-27, 02:32:04,VALID,1007.15,VALID,0,INVALID,135.029,VALID,0.112112,VALID,23.8676,VALID,328,VALID,0,
2014-12-27, 02:33:04,VALID,1007.14,VALID,0,INVALID,135.022,VALID,0.112112,VALID,23.8676,VALID,328,VALID,0,
2014-12-27, 02:34:04,VALID,1007.15,VALID,0,INVALID,135.052,VALID,0.112112,VALID,23.8286,VALID,328,VALID,0,
2014-12-27, 02:35:04,VALID,1007.15,VALID,0,INVALID,134.983,VALID,0,VALID,23.8286,VALID,328,VALID,0,
2014-12-27, 02:36:04,VALID,1007.14,VALID,0,INVALID,134.968,VALID,0.112112,VALID,23.8286,VALID,328,VALID,0,
2014-12-27, 02:37:04,VALID,1007.16,VALID,0,INVALID,134.869,VALID,0.112112,VALID,23.8481,VALID,328,VALID,0,
2014-12-27, 02:38:04,VALID,1007.13,VALID,0,INVALID,134.861,VALID,0.112112,VALID,23.8481,VALID,328,VALID,0,
2014-12-27, 02:39:04,VALID,1007.13,VALID,0,INVALID,134.778,VALID,0.112112,VALID,23.8481,VALID,328,VALID,0,
2014-12-27, 02:40:04,VALID,1007.14,VALID,0,INVALID,134.701,VALID,0.112112,VALID,23.8481,VALID,328,VALID,0,
2014-12-27, 02:41:04,VALID,1007.1,VALID,0,INVALID,134.64,VALID,0.112112,VALID,23.8268,VALID,328,VALID,0,
2014-12-27, 02:42:04,VALID,1007.13,VALID,0,INVALID,134.625,VALID,0.112112,VALID,23.8481,VALID,328,VALID,0,
2014-12-27, 02:43:04,VALID,1007.14,VALID,0,INVALID,134.587,VALID,0.112112,VALID,23.8286,VALID,328,VALID,0,
2014-12-27, 02:44:04,VALID,1007.13,VALID,0,INVALID,134.526,VALID,0.112112,VALID,23.8304,VALID,328,VALID,0,
2014-12-27, 02:45:04,VALID,1007.17,VALID,0,INVALID,134.511,VALID,0.112112,VALID,23.8091,VALID,328,VALID,0,
2014-12-27, 02:46:04,VALID,1007.18,VALID,0,INVALID,134.48,VALID,0,VALID,23.7914,VALID,328,VALID,0,
2014-12-27, 02:47:04,VALID,1007.18,VALID,0,INVALID,134.442,VALID,0,VALID,23.8127,VALID,328,VALID,0,
2014-12-27, 02:48:04,VALID,1007.2,VALID,0,INVALID,134.389,VALID,0,VALID,23.7914,VALID,328,VALID,0,
2014-12-27, 02:49:04,VALID,1007.22,VALID,0,INVALID,134.343,VALID,0,VALID,23.8127,VALID,328,VALID,0,
2014-12-27, 02:50:04,VALID,1007.21,VALID,0,INVALID,134.282,VALID,0,VALID,23.7914,VALID,328,VALID,0,
2014-12-27, 02:51:04,VALID,1007.24,VALID,0,INVALID,134.244,VALID,0,VALID,23.7914,VALID,328,VALID,0,
2014-12-27, 02:52:04,VALID,1007.21,VALID,0,INVALID,134.183,VALID,0,VALID,23.7914,VALID,328,VALID,0,
2014-12-27, 02:53:04,VALID,1007.25,VALID,0,INVALID,134.145,VALID,0,VALID,23.8109,VALID,328,VALID,0,
2014-12-27, 02:54:04,VALID,1007.25,VALID,0,INVALID,134.053,VALID,0,VALID,23.7914,VALID,328,VALID,0,
2014-12-27, 02:55:04,VALID,1007.25,VALID,0,INVALID,134.015,VALID,0,VALID,23.8109,VALID,328,VALID,0,
2014-12-27, 02:56:04,VALID,1007.24,VALID,0,INVALID,133.901,VALID,0,VALID,23.8109,VALID,328,VALID,0,
2014-12-27, 02:57:04,VALID,1007.24,VALID,0,INVALID,133.786,VALID,0,VALID,23.8304,VALID,328,VALID,0,
2014-12-27, 02:58:04,VALID,1007.24,VALID,0,INVALID,133.672,VALID,0,VALID,23.8499,VALID,328,VALID,0,
2014-12-27, 02:59:04,VALID,1007.24,VALID,0,INVALID,133.55,VALID,0,VALID,23.8889,VALID,328,VALID,0,
2014-12-27, 03:00:04,VALID,1007.23,VALID,0,INVALID,133.435,VALID,0,VALID,23.9084,VALID,328,VALID,0,
2014-12-27, 03:01:04,VALID,1007.22,VALID,0,INVALID,133.367,VALID,0,VALID,23.9297,VALID,328,VALID,0,
2014-12-27, 03:02:04,VALID,1007.24,VALID,0,INVALID,133.207,VALID,0,VALID,23.9278,VALID,328,VALID,0,
2014-12-27, 03:03:04,VALID,1007.25,VALID,0,INVALID,133.062,VALID,0,VALID,23.9278,VALID,328,VALID,0,
2014-12-27, 03:04:04,VALID,1007.23,VALID,0,INVALID,132.978,VALID,0,VALID,23.9278,VALID,328,VALID,0,
2014-12-27, 03:05:04,VALID,1007.2,VALID,0,INVALID,132.932,VALID,0,VALID,23.9278,VALID,328,VALID,0,
2014-12-27, 03:06:04,VALID,1007.2,VALID,0,INVALID,132.925,VALID,0,VALID,23.9278,VALID,328,VALID,0,
2014-12-27, 03:07:04,VALID,1007.19,VALID,0,INVALID,132.863,VALID,0,VALID,23.9297,VALID,328,VALID,0,
2014-12-27, 03:08:04,VALID,1007.19,VALID,0,INVALID,132.802,VALID,0,VALID,23.9084,VALID,328,VALID,0,
2014-12-27, 03:09:04,VALID,1007.19,VALID,0,INVALID,132.757,VALID,0,VALID,23.9084,VALID,328,VALID,0,
2014-12-27, 03:10:04,VALID,1007.18,VALID,0,INVALID,132.696,VALID,0,VALID,23.9084,VALID,328,VALID,0,
2014-12-27, 03:11:04,VALID,1007.21,VALID,0,INVALID,132.696,VALID,0,VALID,23.9278,VALID,328,VALID,0,
2014-12-27, 03:12:04,VALID,1007.2,VALID,0,INVALID,132.635,VALID,0,VALID,23.9491,VALID,328,VALID,0,
2014-12-27, 03:13:04,VALID,1007.23,VALID,0,INVALID,132.581,VALID,0,VALID,23.9278,VALID,328,VALID,0,
2014-12-27, 03:14:04,VALID,1007.19,VALID,0,INVALID,132.513,VALID,0,VALID,23.9278,VALID,328,VALID,0,
2014-12-27, 03:15:04,VALID,1007.23,VALID,0,INVALID,132.398,VALID,0,VALID,23.9473,VALID,328,VALID,0,
2014-12-27, 03:16:04,VALID,1007.23,VALID,0,INVALID,132.429,VALID,0,VALID,23.9473,VALID,328,VALID,0,
2014-12-27, 03:17:04,VALID,1007.21,VALID,0,INVALID,132.353,VALID,0,VALID,23.9668,VALID,328,VALID,0,
2014-12-27, 03:18:04,VALID,1007.21,VALID,0,INVALID,132.269,VALID,0,VALID,23.9668,VALID,328,VALID,0,
2014-12-27, 03:19:04,VALID,1007.22,VALID,0,INVALID,132.231,VALID,0,VALID,23.9668,VALID,328,VALID,0,
2014-12-27, 03:20:04,VALID,1007.22,VALID,0,INVALID,132.116,VALID,0,VALID,23.9455,VALID,328,VALID,0,
2014-12-27, 03:21:04,VALID,1007.23,VALID,0,INVALID,132.116,VALID,0,VALID,23.9863,VALID,328,VALID,0,
2014-12-27, 03:22:04,VALID,1007.22,VALID,0,INVALID,131.994,VALID,0.112112,VALID,23.9863,VALID,328,VALID,0,
2014-12-27, 03:23:04,VALID,1007.22,VALID,0,INVALID,131.971,VALID,0,VALID,23.9863,VALID,328,VALID,0,
2014-12-27, 03:24:04,VALID,1007.24,VALID,0,INVALID,131.933,VALID,0,VALID,23.9863,VALID,328,VALID,0,
2014-12-27, 03:25:04,VALID,1007.22,VALID,0,INVALID,131.895,VALID,0,VALID,23.9863,VALID,328,VALID,0,
2014-12-27, 03:26:04,VALID,1007.24,VALID,0,INVALID,131.849,VALID,0,VALID,23.9863,VALID,328,VALID,0,
2014-12-27, 03:27:04,VALID,1007.24,VALID,0,INVALID,131.857,VALID,0,VALID,23.9863,VALID,328,VALID,0,
2014-12-27, 03:28:04,VALID,1007.23,VALID,0,INVALID,131.788,VALID,0,VALID,23.9668,VALID,328,VALID,0,
2014-12-27, 03:29:04,VALID,1007.25,VALID,0,INVALID,131.743,VALID,0,VALID,23.9863,VALID,328,VALID,0,
2014-12-27, 03:30:04,VALID,1007.28,VALID,0,INVALID,131.743,VALID,0,VALID,23.9668,VALID,328,VALID,0,
2014-12-27, 03:31:04,VALID,1007.28,VALID,0,INVALID,131.735,VALID,0.112112,VALID,23.9863,VALID,328,VALID,0,
2014-12-27, 03:32:04,VALID,1007.3,VALID,0,INVALID,131.72,VALID,0.112112,VALID,23.9455,VALID,328,VALID,0,
2014-12-27, 03:33:04,VALID,1007.34,VALID,0,INVALID,131.674,VALID,0.112112,VALID,23.9455,VALID,328,VALID,0,
2014-12-27, 03:34:04,VALID,1007.32,VALID,0,INVALID,131.636,VALID,0,VALID,23.9455,VALID,328,VALID,0,
2014-12-27, 03:35:04,VALID,1007.37,VALID,0,INVALID,131.674,VALID,0.112112,VALID,23.9473,VALID,328,VALID,0,
2014-12-27, 03:36:04,VALID,1007.39,VALID,0,INVALID,131.666,VALID,0.112112,VALID,23.926,VALID,328,VALID,0,
2014-12-27, 03:37:04,VALID,1007.39,VALID,0,INVALID,131.636,VALID,0.112112,VALID,23.926,VALID,328,VALID,0,
2014-12-27, 03:38:04,VALID,1007.44,VALID,0,INVALID,131.682,VALID,0.112112,VALID,23.9065,VALID,328,VALID,0,
2014-12-27, 03:39:04,VALID,1007.47,VALID,0,INVALID,131.613,VALID,0.112112,VALID,23.9278,VALID,328,VALID,0,
2014-12-27, 03:40:04,VALID,1007.47,VALID,0,INVALID,131.582,VALID,0.112112,VALID,23.926,VALID,328,VALID,0,
2014-12-27, 03:41:04,VALID,1007.49,VALID,0,INVALID,131.567,VALID,0.112112,VALID,23.926,VALID,328,VALID,0,
2014-12-27, 03:42:04,VALID,1007.53,VALID,0,INVALID,131.506,VALID,0.112112,VALID,23.926,VALID,328,VALID,0,
2014-12-27, 03:43:04,VALID,1007.52,VALID,0,INVALID,131.476,VALID,0.112112,VALID,23.926,VALID,328,VALID,0,
2014-12-27, 03:44:04,VALID,1007.56,VALID,0,INVALID,131.491,VALID,0.112112,VALID,23.926,VALID,328,VALID,0,
2014-12-27, 03:45:04,VALID,1007.57,VALID,0,INVALID,131.437,VALID,0.112112,VALID,23.9242,VALID,328,VALID,0,
2014-12-27, 03:46:04,VALID,1007.58,VALID,0,INVALID,131.491,VALID,0,VALID,23.926,VALID,328,VALID,0,
2014-12-27, 03:47:04,VALID,1007.63,VALID,0,INVALID,131.46,VALID,0,VALID,23.9278,VALID,328,VALID,0,
2014-12-27, 03:48:04,VALID,1007.65,VALID,0,INVALID,131.506,VALID,0,VALID,23.9084,VALID,328,VALID,0,
2014-12-27, 03:49:04,VALID,1007.67,VALID,0,INVALID,131.514,VALID,0,VALID,23.9278,VALID,328,VALID,0,